Location: Le Rocchette
(44.3500°N, 7.8333°E)
Time: 08:39:43
(UTC+00:00)

PSLV R/B - Visible Passes

Search period start: 21 January 2021 00:00
Search period end: 31 January 2021 00:00
Orbit: 503 x 578 km, 97.8° (Epoch: 20 January)

Date Brightness Start Highest point End Pass type
(mag) Time Alt. Az. Time Alt. Az. Time Alt. Az.
21 Jan 3.7 05:34:25 10° N 05:38:23 79° WNW 05:42:23 10° SSW visible
22 Jan 3.8 05:27:15 10° NNE 05:31:14 85° ESE 05:35:16 10° SSW visible
22 Jan 7.4 17:50:22 10° W 17:51:01 10° W 17:51:40 10° W visible
23 Jan 4.1 05:20:06 10° NNE 05:24:05 70° ESE 05:28:06 10° S visible
23 Jan 7.1 17:42:04 10° WSW 17:43:46 13° W 17:45:30 10° WNW visible
24 Jan 4.5 05:12:58 10° NNE 05:16:55 57° E 05:20:54 10° S visible
24 Jan 6.9 17:34:16 10° SW 17:36:32 15° W 17:38:50 10° NW visible
25 Jan 4.9 05:05:52 10° NNE 05:09:45 47° E 05:13:40 10° S visible
25 Jan 6.8 17:26:37 10° SW 17:29:18 19° W 17:32:01 10° NW visible
26 Jan 5.3 04:58:46 10° NNE 05:02:34 39° E 05:06:23 10° SSE visible
26 Jan 6.5 17:19:06 10° SSW 17:22:04 22° W 17:25:05 10° NW visible
27 Jan 5.7 04:51:43 10° NNE 04:55:22 32° E 04:59:03 10° SSE visible
27 Jan 6.2 17:11:39 10° SSW 17:14:51 27° W 17:18:07 10° NW visible
28 Jan 6.1 04:44:42 10° NE 04:48:10 27° E 04:51:40 10° SSE visible
28 Jan 5.8 17:04:15 10° SSW 17:07:38 33° W 17:11:06 10° NNW visible
29 Jan 6.4 04:37:42 10° NE 04:40:58 23° E 04:44:14 10° SSE visible
29 Jan 4.6 06:11:54 10° N 06:15:29 31° WNW 06:19:06 10° SW visible
30 Jan 6.7 04:30:47 10° NE 04:33:45 19° E 04:36:43 10° SE visible
30 Jan 4.4 06:04:37 10° N 06:08:22 37° WNW 06:12:08 10° SW visible
